01:37 MESZ | 07.09.2026 Profi-Wetter| Mobile Seite| Kontakt| Impressum| Datenschutz
Social

Wetterstation Wiesbaden

Messwerte
  Temperatur Wetter Niederschlag Luftdruck Wind
Mo, 00:55 Uhr 20° 0 mm 1022 hPa 8 km/h O
So, 23:55 Uhr 21° 0 mm 1023 hPa 10 km/h O
So, 22:55 Uhr 21° 0 mm 1023 hPa 10 km/h O
So, 21:55 Uhr 21° 0 mm 1023 hPa 11 km/h O
So, 20:55 Uhr 22° 0 mm 1023 hPa 10 km/h O
So, 19:55 Uhr 23° 0 mm 1023 hPa 5 km/h NO
So, 18:55 Uhr 24° 0 mm 1023 hPa 10 km/h SO
So, 17:55 Uhr 25° 0 mm 1024 hPa 11 km/h O
So, 16:55 Uhr 25° 0 mm 1024 hPa -
So, 15:55 Uhr 25° 0 mm 1025 hPa 8 km/h O
So, 14:55 Uhr 24° 0 mm 1025 hPa 10 km/h O
So, 13:55 Uhr 23° 0 mm 1026 hPa -
So, 12:55 Uhr 21° 0 mm 1027 hPa 5 km/h SO
So, 11:55 Uhr 20° 0 mm 1027 hPa 8 km/h O
So, 10:55 Uhr 19° 0 mm 1028 hPa 10 km/h SO
So, 09:55 Uhr 17° 0 mm 1027 hPa 11 km/h SO
So, 08:55 Uhr 15° 0 mm 1027 hPa -
So, 07:55 Uhr 12° 0 mm 1028 hPa 8 km/h SW
So, 06:55 Uhr 11° 0 mm 1027 hPa -
So, 05:55 Uhr 12° 0 mm 1027 hPa 11 km/h N

Alle Zeitangaben MESZ